カタログに戻る

COSMOS 2288

GLONASS

運用中ナビゲーションMEO
NORAD 23205·PAYLOAD·🇷🇺 Russia

打ち上げ Aug 11, 1994 から Baikonur Cosmodrome

Loading…

次のパス (今後24時間)

TLE

最新Source: Space-Track

元期: Sep 11, 2026, 07:03 UTC

1 23205U 94050C   26254.29385287 -.00000005  00000-0  00000-0 0  9999
2 23205  65.4144 199.3653 0002218 296.1210 241.8860  2.13101583249668

AllMySatでCOSMOS 2288をリアルタイム追跡

Download on the App Store